Weather History for Dumas, TX

Change the Weather History Date:

Sunday, April 13, 2014

  Actual Average (KBGD) Record (KBGD)
Temperature  
Mean Temperature 48 °F 58 °F  
Max Temperature 66 °F 72 °F 94 °F (2006)
Min Temperature 29 °F 44 °F 23 °F (1997)
Degree Days  
Heating Degree Days 17 8  
Month to date heating degree days 123  
Since 1 July heating degree days 3600  
Cooling Degree Days 0 1  
Month to date cooling degree days 10  
Year to date cooling degree days 17  
Moisture  
Dew Point 31 °F    
Average Humidity 47    
Maximum Humidity 86    
Minimum Humidity 22    
Precipitation  
Precipitation 0.00 in 0.05 in 0.91 in (1967)
Month to date precipitation 0.72  
Year to date precipitation 3.34  
Snow  
Snow 0.00 in - 0.60 in (1950)
Month to date snowfall  
Since 1 July snowfall  
Snow Depth -    
Sea Level Pressure  
Sea Level Pressure 29.72 in    
Wind  
Wind Speed 16 mph (NW)    
Max Wind Speed 36 mph    
Max Gust Speed 47 mph    
Visibility 10 miles    
Events Snow    
T = Trace of Precipitation, MM = Missing Value Source: NWS Daily Summary

Daily Weather History Graph

Daily Weather History Graph

Search for Another Location

Airport:

Trip Planner

Search our weather history database for the weather conditions in past years. The results will help you decide how hot, cold, wet, or windy it might be!

Date:

Astronomy

Apr. 13, 2014 Rise Set
Actual Time 7:17 AM CDT 8:19 PM CDT
Civil Twilight 6:51 AM CDT 8:46 PM CDT
Nautical Twilight 6:20 AM CDT 9:17 PM CDT
Astronomical Twilight 5:48 AM CDT 9:49 PM CDT
Moon 7:02 PM CDT (4/13) 6:14 AM CDT (4/13)
Length of Visible Light 13h 54m
Length of Day
13h 02m
Waxing Gibbous, 97% of the Moon is Illuminated
Apr 13
Waxing Gibbous
Apr 15
Full
Apr 22
Last Quarter
Apr 29
New
May 6
First Quarter

Hourly Weather History & Observations

Time (CDT) Temp. Windchill Dew Point Humidity Pressure Visibility Wind Dir Wind Speed Gust Speed Precip Events Conditions
12:15 AM 65.7 °F - 25.5 °F 22% 29.61 in 10.0 mi SW 11.5 mph - N/A   Clear
12:35 AM 65.7 °F - 25.9 °F 22% 29.62 in 10.0 mi WSW 11.5 mph - N/A   Clear
12:55 AM 66.0 °F - 26.2 °F 22% 29.63 in 10.0 mi WSW 13.8 mph - N/A   Clear
1:15 AM 66.6 °F - 26.8 °F 22% 29.61 in 10.0 mi West 11.5 mph - N/A   Clear
1:35 AM 63.5 °F - 27.7 °F 26% 29.60 in 10.0 mi West 10.4 mph - N/A   Clear
1:55 AM 61.0 °F - 28.2 °F 29% 29.60 in 10.0 mi West 12.7 mph - N/A   Clear
2:15 AM 61.7 °F - 29.1 °F 29% 29.59 in 10.0 mi West 10.4 mph - N/A   Clear
2:35 AM 64.9 °F - 29.8 °F 27% 29.60 in 10.0 mi WNW 15.0 mph - N/A   Clear
2:55 AM 61.9 °F - 30.4 °F 31% 29.59 in 10.0 mi WNW 10.4 mph - N/A   Clear
3:15 AM 58.1 °F - 29.8 °F 34% 29.59 in 10.0 mi West 6.9 mph - N/A   Clear
3:35 AM 55.4 °F - 29.1 °F 37% 29.58 in 10.0 mi West 9.2 mph - N/A   Clear
3:55 AM 55.4 °F - 29.1 °F 37% 29.57 in 10.0 mi West 9.2 mph - N/A   Clear
4:15 AM 54.1 °F - 29.1 °F 38% 29.57 in 10.0 mi West 9.2 mph - N/A   Clear
4:35 AM 53.2 °F - 28.4 °F 38% 29.57 in 10.0 mi West 10.4 mph - N/A   Clear
4:55 AM 53.6 °F - 29.7 °F 40% 29.57 in 10.0 mi West 11.5 mph - N/A   Clear
5:15 AM 51.8 °F - 29.7 °F 43% 29.56 in 10.0 mi West 8.1 mph - N/A   Clear
5:35 AM 52.5 °F - 29.8 °F 42% 29.57 in 10.0 mi West 12.7 mph - N/A   Clear
5:55 AM 53.6 °F - 30.7 °F 42% 29.57 in 10.0 mi WSW 10.4 mph - N/A   Clear
6:15 AM 52.5 °F - 30.4 °F 43% 29.57 in 10.0 mi WSW 10.4 mph - N/A   Clear
6:35 AM 53.4 °F - 29.3 °F 40% 29.57 in 10.0 mi WSW 10.4 mph - N/A   Clear
6:55 AM 54.9 °F - 27.5 °F 35% 29.57 in 10.0 mi WSW 11.5 mph - N/A   Clear
7:15 AM 52.9 °F - 27.5 °F 38% 29.57 in 10.0 mi WSW 11.5 mph - N/A   Clear
7:35 AM 50.9 °F - 27.5 °F 40% 29.57 in 10.0 mi SW 10.4 mph - N/A   Clear
7:55 AM 52.9 °F - 27.5 °F 38% 29.58 in 10.0 mi WSW 10.4 mph - N/A   Clear
8:15 AM 54.1 °F - 27.9 °F 36% 29.59 in 10.0 mi West 12.7 mph - N/A   Clear
8:35 AM 53.8 °F - 27.5 °F 36% 29.60 in 10.0 mi WSW 11.5 mph - N/A   Clear
8:55 AM 58.5 °F - 28.2 °F 32% 29.62 in 10.0 mi West 19.6 mph - N/A   Clear
9:15 AM 61.0 °F - 29.5 °F 30% 29.62 in 10.0 mi WNW 17.3 mph - N/A   Clear
9:55 AM 60.1 °F - 41.2 °F 50% 29.64 in 10.0 mi North 25.3 mph 31.1 mph N/A   Clear
10:15 AM 59.4 °F - 41.9 °F 52% 29.66 in 10.0 mi NNW 25.3 mph 31.1 mph N/A   Clear
10:35 AM 59.0 °F - 39.7 °F 49% 29.67 in 10.0 mi North 28.8 mph 33.4 mph N/A   Clear
10:55 AM 59.9 °F - 38.5 °F 45% 29.68 in 10.0 mi North 26.5 mph 33.4 mph N/A   Clear
11:15 AM 60.1 °F - 37.8 °F 44% 29.69 in 10.0 mi North 24.2 mph 32.2 mph N/A   Scattered Clouds
11:35 AM 60.4 °F - 36.9 °F 42% 29.71 in 10.0 mi North 20.7 mph 34.5 mph N/A   Scattered Clouds
11:55 AM 60.6 °F - 36.0 °F 40% 29.71 in 10.0 mi North 24.2 mph 34.5 mph N/A   Scattered Clouds
12:15 PM 61.2 °F - 36.5 °F 40% 29.72 in 10.0 mi North 24.2 mph 34.5 mph N/A   Clear
12:35 PM 60.8 °F - 37.4 °F 42% 29.72 in 10.0 mi North 20.7 mph 35.7 mph N/A   Clear
1:15 PM 62.6 °F - 37.0 °F 39% 29.72 in 10.0 mi North 25.3 mph 31.1 mph N/A   Clear
1:35 PM 62.4 °F - 36.5 °F 38% 29.72 in 10.0 mi North 26.5 mph 38.0 mph N/A   Clear
1:55 PM 63.0 °F - 36.0 °F 37% 29.71 in 10.0 mi North 29.9 mph 34.5 mph N/A   Clear
2:15 PM 61.0 °F - 35.2 °F 38% 29.72 in 10.0 mi North 23.0 mph 33.4 mph N/A   Clear
2:35 PM 61.0 °F - 35.4 °F 38% 29.74 in 10.0 mi North 21.9 mph 35.7 mph N/A   Clear
2:55 PM 58.6 °F - 34.9 °F 41% 29.75 in 7.0 mi North 21.9 mph 36.8 mph N/A   Clear
3:15 PM 57.0 °F - 34.5 °F 43% 29.75 in 10.0 mi North 24.2 mph 34.5 mph N/A   Clear
3:35 PM 56.1 °F - 34.2 °F 44% 29.76 in 10.0 mi North 24.2 mph 34.5 mph N/A   Clear
3:55 PM 53.6 °F - 33.4 °F 46% 29.76 in 10.0 mi North 23.0 mph 31.1 mph N/A   Clear
4:15 PM 53.8 °F - 33.1 °F 45% 29.78 in 10.0 mi North 18.4 mph 27.6 mph N/A   Scattered Clouds
4:35 PM 53.6 °F - 32.2 °F 44% 29.76 in 10.0 mi North 20.7 mph 28.8 mph N/A   Scattered Clouds
4:55 PM 52.9 °F - 32.0 °F 45% 29.77 in 10.0 mi North 19.6 mph 28.8 mph N/A   Clear
5:15 PM 52.0 °F - 32.0 °F 47% 29.76 in 10.0 mi North 23.0 mph 32.2 mph N/A   Clear
5:35 PM 51.3 °F - 31.8 °F 47% 29.77 in 10.0 mi North 20.7 mph 34.5 mph N/A   Clear
5:55 PM 49.5 °F - 31.5 °F 50% 29.76 in 10.0 mi NNE 23.0 mph 33.4 mph N/A   Clear
6:15 PM 47.3 °F - 30.6 °F 52% 29.78 in 10.0 mi NNE 25.3 mph 29.9 mph N/A   Clear
6:35 PM 45.5 °F 36.7 °F 30.6 °F 56% 29.78 in 10.0 mi North 25.3 mph 31.1 mph N/A   Scattered Clouds
6:55 PM 43.2 °F 33.8 °F 30.0 °F 60% 29.80 in 10.0 mi North 24.2 mph 29.9 mph N/A   Scattered Clouds
7:15 PM 40.3 °F 31.3 °F 28.9 °F 64% 29.81 in 10.0 mi North 18.4 mph 28.8 mph N/A   Scattered Clouds
7:35 PM 39.6 °F 29.7 °F 28.9 °F 66% 29.82 in 10.0 mi NNE 20.7 mph 26.5 mph N/A   Mostly Cloudy
7:55 PM 38.8 °F 28.5 °F 28.4 °F 66% 29.84 in 10.0 mi North 21.9 mph 29.9 mph N/A   Mostly Cloudy
8:15 PM 37.8 °F 26.6 °F 27.9 °F 67% 29.85 in 10.0 mi NNE 24.2 mph 29.9 mph N/A   Mostly Cloudy
8:35 PM 36.5 °F 25.4 °F 27.3 °F 69% 29.86 in 10.0 mi North 21.9 mph 28.8 mph N/A   Mostly Cloudy
8:55 PM 35.6 °F 23.4 °F 26.6 °F 70% 29.88 in 10.0 mi North 25.3 mph 32.2 mph N/A   Mostly Cloudy
9:15 PM 34.9 °F 23.3 °F 27.0 °F 73% 29.90 in 10.0 mi North 21.9 mph 35.7 mph N/A   Mostly Cloudy
9:35 PM 34.5 °F 21.8 °F 26.8 °F 73% 29.96 in 10.0 mi North 26.5 mph 39.1 mph N/A   Overcast
9:55 PM 34.0 °F 20.5 °F 27.1 °F 76% 29.98 in 10.0 mi North 28.8 mph 41.4 mph N/A   Overcast
10:15 PM 33.6 °F 19.6 °F 26.4 °F 75% 29.96 in 10.0 mi North 31.1 mph 39.1 mph N/A   Overcast
10:35 PM 32.5 °F 17.7 °F 26.4 °F 78% 29.96 in 7.0 mi North 33.4 mph 47.2 mph N/A Snow Light Snow
10:55 PM 31.6 °F 17.1 °F 27.7 °F 85% 29.97 in 5.0 mi North 29.9 mph 35.7 mph N/A   Overcast
11:15 PM 31.1 °F 15.3 °F 26.4 °F 83% 30.00 in 10.0 mi North 35.7 mph 43.7 mph N/A   Overcast
11:35 PM 30.4 °F 16.2 °F 26.4 °F 85% 30.02 in 7.0 mi North 26.5 mph 38.0 mph N/A   Overcast
11:55 PM 29.3 °F 15.0 °F 25.5 °F 86% 30.04 in 5.0 mi North 25.3 mph 41.4 mph N/A   Mostly Cloudy